Location: Unspecified
(0.0000°N, 0.0000°E)
Time: 19:16:14
(UTC+00:00)

Vanguard 2 Rocket - Pass Details

Date: 19 November 2019
Orbit: 554 x 3326 km, 32.9° (Epoch: 05 December)

Event Time Altitude Azimuth Distance (km) Brightness Sun altitude
Rises 14:01:13 0° 243° (WSW) 7,290 12.1 51.4°
Reaches altitude 10° 14:09:41 10° 224° (SW) 6,254 12.0 49.6°
Maximum altitude 14:20:25 17° 191° (S) 5,343 11.5 47.3°
Drops below altitude 10° 14:29:41 10° 156° (SSE) 5,300 11.0 45.3°
Sets 14:35:46 0° 136° (SE) 5,773 10.9 43.9°
